Vicksburg, LA

1:44 AM CDT on June 25, 2017 (GMT -0500)
Vicksburg Tallulah Regional

Weather History for KTVR - November, 2011

Change the Weather History Date:

Wednesday, November 30, 2011

  Actual Average Record
Temperature  
Mean Temperature 39 °F 51 °F  
Max Temperature 54 °F 62 °F 80 °F (1970)
Min Temperature 24 °F 40 °F 17 °F (1956)
Degree Days  
Heating Degree Days 26 14  
Month to date heating degree days 290 299  
Since 1 July heating degree days 447 402  
Cooling Degree Days 0 0  
Month to date cooling degree days 35 16  
Year to date cooling degree days 2588 2225  
Moisture  
Dew Point 29 °F    
Average Humidity 71    
Maximum Humidity 100    
Minimum Humidity 41    
Precipitation  
Precipitation 0.00 in 0.23 in 1.78 in (1977)
Month to date precipitation 3.44 5.00  
Year to date precipitation 31.40 49.13  
Sea Level Pressure  
Sea Level Pressure 30.23 in    
Wind  
Wind Speed 2 mph (NW)    
Max Wind Speed 9 mph    
Max Gust Speed 13 mph    
Visibility 4 miles    
Events Fog    
T = Trace of Precipitation, MM = Missing Value Source: NWS Daily Summary

Daily Weather History Graph

Daily Weather History Graph

Search for Another Location

Airport or City:

Trip Planner

Search our weather history database for the weather conditions in past years. The results will help you decide how hot, cold, wet, or windy it might be!

Date:

Astronomy

Nov. 30, 2011 Rise Set
Actual Time 6:46 AM CST 4:58 PM CST
Civil Twilight 6:19 AM CST 5:25 PM CST
Nautical Twilight 5:49 AM CST 5:55 PM CST
Astronomical Twilight 5:19 AM CST 6:25 PM CST
Moon 11:14 AM CST (11/30) 10:44 PM CST (11/30)
Length of Visible Light 11h 05m
Length of Day
10h 12m
Waxing Crescent, 34% of the Moon is Illuminated
Nov 30
Waxing Crescent
Dec 2
First Quarter
Dec 10
Full
Dec 17
Last Quarter
Dec 24
New

Hourly Weather History & Observations

Time (CST) Temp. Windchill Dew Point Humidity Pressure Visibility Wind Dir Wind Speed Gust Speed Precip Events Conditions
12:53 AM 30.9 °F - 28.9 °F 92% 30.21 in 10.0 mi Calm Calm - N/A   Clear
1:53 AM 30.0 °F - 28.9 °F 96% 30.21 in 1.8 mi Calm Calm - N/A   Clear
2:17 AM 30.2 °F - 30.2 °F 100% 30.19 in 3.0 mi Calm Calm - N/A   Clear
2:53 AM 28.9 °F - 28.0 °F 96% 30.22 in 6.0 mi Calm Calm - N/A   Clear
3:02 AM 28.4 °F - 28.4 °F 100% 30.19 in 1.8 mi Calm Calm - N/A   Clear
3:19 AM 28.4 °F - 28.4 °F 100% 30.19 in 2.0 mi Calm Calm - N/A   Clear
3:27 AM 28.4 °F - 28.4 °F 100% 30.19 in 1.2 mi Calm Calm - N/A   Clear
3:53 AM 28.9 °F - 28.0 °F 96% 30.22 in 0.8 mi Calm Calm - N/A   Clear
4:03 AM 28.4 °F - 26.6 °F 93% 30.20 in 1.2 mi Calm Calm - N/A   Clear
4:32 AM 28.4 °F 24.6 °F 26.6 °F 93% 30.21 in 0.8 mi WNW 3.5 mph - N/A   Clear
4:45 AM 28.4 °F 24.6 °F 28.4 °F 100% 30.21 in 1.0 mi WNW 3.5 mph - N/A   Clear
4:53 AM 25.0 °F - 25.0 °F 100% 30.24 in 0.8 mi Calm Calm - N/A   Clear
5:24 AM 26.6 °F - 24.8 °F 93% 30.22 in 1.8 mi Calm Calm - N/A   Clear
5:35 AM 26.6 °F - 24.8 °F 93% 30.22 in 0.5 mi Calm Calm - N/A Fog Light Freezing Fog
5:53 AM 26.1 °F - 25.0 °F 96% 30.25 in 1.0 mi Calm Calm - N/A   Clear
6:01 AM 26.6 °F - 26.6 °F 100% 30.23 in 1.0 mi Calm Calm - N/A   Mist
6:08 AM 24.8 °F - 24.8 °F 100% 30.23 in 0.5 mi Calm Calm - N/A Fog Light Freezing Fog
6:53 AM 26.1 °F 21.9 °F 25.0 °F 96% 30.26 in 0.2 mi NNE 3.5 mph - N/A Fog Light Freezing Fog
7:19 AM 26.6 °F - 26.6 °F 100% 30.25 in 0.2 mi Calm Calm - N/A Fog Light Freezing Fog
7:53 AM 32.0 °F - 32.0 °F 100% 30.28 in 0.2 mi Calm Calm - N/A Fog Fog
8:46 AM 42.8 °F - 39.2 °F 87% 30.27 in 1.5 mi Calm Calm - N/A   Clear
8:51 AM 42.8 °F - 39.2 °F 87% 30.27 in 3.0 mi Calm Calm - N/A   Clear
8:53 AM 43.0 °F - 39.0 °F 86% 30.30 in 5.0 mi Calm Calm - N/A   Clear
9:53 AM 46.0 °F 44.8 °F 37.0 °F 71% 30.30 in 10.0 mi Variable 3.5 mph - N/A   Clear
10:53 AM 50.0 °F - 35.1 °F 57% 30.29 in 10.0 mi Calm Calm - N/A   Clear
11:53 AM 52.0 °F - 35.1 °F 53% 30.26 in 10.0 mi NW 5.8 mph - N/A   Clear
12:53 PM 52.0 °F - 34.0 °F 50% 30.24 in 10.0 mi North 8.1 mph - N/A   Clear
1:53 PM 54.0 °F - 30.9 °F 41% 30.22 in 10.0 mi NW 8.1 mph - N/A   Clear
2:53 PM 54.0 °F - 30.0 °F 40% 30.21 in 10.0 mi Calm Calm - N/A   Clear
3:53 PM 52.0 °F - 28.9 °F 41% 30.21 in 10.0 mi West 4.6 mph - N/A   Clear
4:53 PM 48.0 °F - 28.0 °F 46% 30.21 in 10.0 mi Calm Calm - N/A   Clear
5:53 PM 45.0 °F 43.5 °F 28.0 °F 52% 30.21 in 10.0 mi NNW 3.5 mph - N/A   Clear
6:53 PM 37.9 °F - 28.0 °F 68% 30.23 in 10.0 mi Calm Calm - N/A   Clear
7:53 PM 34.0 °F - 30.0 °F 85% 30.23 in 10.0 mi Calm Calm - N/A   Clear
9:59 PM 30.2 °F - 28.4 °F 93% 30.22 in 1.8 mi Calm Calm - N/A   Clear
10:23 PM 30.2 °F - 30.2 °F 100% 30.22 in 3.0 mi Calm Calm - N/A   Clear
10:53 PM 28.9 °F - 28.9 °F 100% 30.25 in 10.0 mi Calm Calm - N/A   Clear
11:05 PM 30.2 °F - 28.4 °F 93% 30.23 in 1.8 mi Calm Calm - N/A   Clear
11:16 PM 28.4 °F - 28.4 °F 100% 30.22 in 0.8 mi Calm Calm - N/A   Clear
11:23 PM 28.4 °F - 28.4 °F 100% 30.23 in 1.5 mi Calm Calm - N/A   Clear
11:27 PM 28.4 °F - 28.4 °F 100% 30.22 in 3.0 mi Calm Calm - N/A   Clear
11:53 PM 27.0 °F - 27.0 °F 100% 30.25 in 7.0 mi Calm Calm - N/A   Clear